Burlington, CO

7:02 AM MDT on June 24, 2017 (GMT -0600)
Kit Carson County

Weather History for KITR - February, 2013

Change the Weather History Date:

Friday, February 22, 2013

  Actual Average Record
Temperature  
Mean Temperature 19 °F 33 °F  
Max Temperature 33 °F 46 °F 76 °F (1982)
Min Temperature 4 °F 19 °F -7 °F (1913)
Degree Days  
Heating Degree Days 48    
Moisture  
Dew Point 12 °F    
Average Humidity 79    
Maximum Humidity 92    
Minimum Humidity 61    
Precipitation  
Precipitation 0.00 in 0.03 in 0.53 in (1931)
Month to date precipitation 0.03 0.30  
Year to date precipitation 0.05 0.68  
Sea Level Pressure  
Sea Level Pressure 30.03 in    
Wind  
Wind Speed 9 mph (WNW)    
Max Wind Speed 15 mph    
Max Gust Speed -    
Visibility 10 miles    
Events      
T = Trace of Precipitation, MM = Missing Value Source: NWS Daily Summary

Daily Weather History Graph

Daily Weather History Graph

Search for Another Location

Airport or City:

Trip Planner

Search our weather history database for the weather conditions in past years. The results will help you decide how hot, cold, wet, or windy it might be!

Date:

Astronomy

Feb. 22, 2013 Rise Set
Actual Time 6:31 AM MST 5:34 PM MST
Civil Twilight 6:04 AM MST 6:01 PM MST
Nautical Twilight 5:33 AM MST 6:32 PM MST
Astronomical Twilight 5:02 AM MST 7:03 PM MST
Moon 2:48 PM MST (2/22) 4:17 AM MST (2/22)
Length of Visible Light 11h 57m
Length of Day
11h 03m
Waxing Gibbous, 90% of the Moon is Illuminated
Feb 22
Waxing Gibbous
Feb 25
Full
Mar 4
Last Quarter
Mar 11
New
Mar 19
First Quarter

Hourly Weather History & Observations

Time (MST) Temp. Windchill Dew Point Humidity Pressure Visibility Wind Dir Wind Speed Gust Speed Precip Events Conditions
12:19 AM 6.8 °F -5.9 °F 3.2 °F 85% 29.87 in 10.0 mi West 8.1 mph - N/A   Mostly Cloudy
12:53 AM 12.9 °F 0.7 °F 9.0 °F 84% 30.01 in 10.0 mi WNW 9.2 mph - N/A   Overcast
1:53 AM 14.0 °F 1.2 °F 10.9 °F 88% 29.99 in 10.0 mi NW 10.4 mph - N/A   Overcast
2:53 AM 12.0 °F 5.9 °F 9.0 °F 88% 29.99 in 10.0 mi West 3.5 mph - N/A   Mostly Cloudy
3:03 AM 10.4 °F 0.8 °F 6.8 °F 85% 29.84 in 10.0 mi WNW 5.8 mph - N/A   Scattered Clouds
3:53 AM 5.0 °F -9.1 °F 3.0 °F 92% 30.04 in 10.0 mi West 9.2 mph - N/A   Clear
4:53 AM 3.9 °F -11.3 °F 1.0 °F 88% 30.07 in 10.0 mi WSW 10.4 mph - N/A   Clear
5:53 AM 7.0 °F -8.3 °F 3.9 °F 87% 30.06 in 10.0 mi WNW 11.5 mph - N/A   Clear
6:53 AM 8.1 °F -4.3 °F 5.0 °F 87% 30.06 in 10.0 mi West 8.1 mph - N/A   Clear
7:53 AM 10.0 °F -3.7 °F 6.1 °F 84% 30.08 in 10.0 mi West 10.4 mph - N/A   Clear
8:53 AM 18.0 °F 5.4 °F 12.0 °F 78% 30.07 in 10.0 mi West 11.5 mph - N/A   Clear
9:53 AM 24.1 °F 12.0 °F 17.1 °F 75% 30.07 in 10.0 mi West 13.8 mph - N/A   Clear
10:53 AM 28.0 °F 18.6 °F 19.9 °F 72% 30.06 in 10.0 mi WNW 10.4 mph - N/A   Clear
11:53 AM 30.9 °F 21.2 °F 19.9 °F 64% 30.06 in 10.0 mi NW 12.7 mph - N/A   Clear
12:53 PM 32.0 °F 21.6 °F 21.0 °F 64% 30.03 in 10.0 mi WNW 15.0 mph - N/A   Clear
1:53 PM 32.0 °F 21.6 °F 21.9 °F 66% 30.01 in 10.0 mi WNW 15.0 mph - N/A   Partly Cloudy
2:53 PM 32.0 °F 23.6 °F 21.0 °F 64% 30.03 in 10.0 mi NNW 10.4 mph - N/A   Scattered Clouds
3:53 PM 32.0 °F 23.0 °F 19.9 °F 61% 30.04 in 10.0 mi NW 11.5 mph - N/A   Scattered Clouds
4:53 PM 30.0 °F 23.2 °F 19.9 °F 66% 30.05 in 10.0 mi NW 6.9 mph - N/A   Mostly Cloudy
5:53 PM 28.0 °F 24.2 °F 19.0 °F 69% 30.05 in 10.0 mi NW 3.5 mph - N/A   Clear
6:53 PM 19.0 °F 12.3 °F 15.1 °F 85% 30.09 in 10.0 mi WSW 4.6 mph - N/A   Clear
7:53 PM 14.0 °F 2.9 °F 10.0 °F 84% 30.10 in 10.0 mi WSW 8.1 mph - N/A   Clear
8:53 PM 14.0 °F 2.9 °F 9.0 °F 80% 30.08 in 10.0 mi WSW 8.1 mph - N/A   Clear
9:53 PM 12.0 °F -0.4 °F 9.0 °F 88% 30.06 in 10.0 mi WSW 9.2 mph - N/A   Clear
10:53 PM 15.1 °F 3.3 °F 10.9 °F 84% 30.02 in 10.0 mi WSW 9.2 mph - N/A   Clear
11:53 PM 14.0 °F 1.2 °F 10.0 °F 84% 30.00 in 10.0 mi West 10.4 mph - N/A   Clear